{"data":{"norad_id":55374,"intl_designator":"2023-013AV","name":"STARLINK-5578","alt_names":[],"object_type":"PAYLOAD","status":"ACTIVE","operator":null,"country":"US","launch_date":"2023-01-26","launch_site_code":"AFETR","launch_vehicle":null,"mission":null,"orbit_class":"UNKNOWN","rcs_meters":null,"size_class":null,"mass_kg":null,"dimensions":null,"purposes":["comms"],"wikipedia_slug":null,"has_3d_model":false,"image_url":null,"decayed_at":null,"tle_current":{"epoch":"2026-09-20T10:28:35.168160Z","epoch_age_seconds":102113,"freshness":"FRESH","line1":"1 55374U 23013AV  26263.43651815 -.00000239  00000+0  84353-6 0  9998","line2":"2 55374  43.0053 302.0092 0001785 291.3740  68.6921 15.27575434201248","mean_motion":15.27575434,"eccentricity":0.0001785,"inclination_deg":43.0053,"raan_deg":302.0092,"arg_perigee_deg":291.374,"mean_anomaly_deg":68.6921,"bstar":8.4353e-7,"rev_number":20124,"period_min":94.267030481717,"perigee_km":481.83804416167,"apogee_km":484.28749247896,"semimajor_km":6861.1997683203,"source":"CELESTRAK","updated_at":"2026-09-21T09:00:33.210069Z"}}}